• In Hungary
  • List of Countries
  • For 7 days
  • Water Temperature
  • Satellite Maps
  • Weather Map
  • News
  • Weather Widgets
  • user-avatar
    Login

    Hourly Weather Boldyrevo

    Today, 21 July, Saturday

    Time Temperature Precipitation Wind Pressure Humidity
    00:00 +26°C° 0.1 mm 3 mps 749 mmHg 62%
    01:00 +26°C° 0.1 mm 4 mps 749 mmHg 66%
    02:00 +25°C° 0 mm 4 mps 748 mmHg 68%
    03:00 +25°C° 0 mm 4 mps 748 mmHg 70%
    04:00 +23°C° 0 mm 4 mps 748 mmHg 72%
    05:00 +25°C° 0.2 mm 4 mps 748 mmHg 72%
    06:00 +25°C° 0.2 mm 4 mps 749 mmHg 73%
    07:00 +25°C° 0.2 mm 5 mps 749 mmHg 74%
    08:00 +26°C° 0 mm 5 mps 749 mmHg 70%
    09:00 +27°C° 0 mm 5 mps 749 mmHg 67%
    10:00 +28°C° 0 mm 6 mps 749 mmHg 64%
    11:00 +29°C° 0 mm 6 mps 749 mmHg 60%
    12:00 +30°C° 0 mm 6 mps 749 mmHg 56%
    13:00 +32°C° 0 mm 7 mps 748 mmHg 52%
    14:00 +32°C° 0 mm 7 mps 748 mmHg 51%
    15:00 +32°C° 0 mm 7 mps 748 mmHg 50%
    16:00 +32°C° 0 mm 7 mps 748 mmHg 50%
    17:00 +30°C° 0.1 mm 7 mps 748 mmHg 53%
    18:00 +29°C° 0.1 mm 7 mps 748 mmHg 56%
    19:00 +28°C° 0.1 mm 8 mps 748 mmHg 59%
    20:00 +27°C° 1.3 mm 7 mps 748 mmHg 64%
    21:00 +24°C° 1.3 mm 7 mps 748 mmHg 68%
    22:00 +23°C° 1.3 mm 7 mps 748 mmHg 72%
    23:00 +22°C° 0.9 mm 6 mps 748 mmHg 75%

    Tomorrow, 22 July, Sunday

    Time Temperature Precipitation Wind Pressure Humidity
    00:00 +21°C° 0.9 mm 6 mps 749 mmHg 77%
    01:00 +21°C° 0.9 mm 5 mps 749 mmHg 79%
    02:00 +21°C° 0.1 mm 6 mps 749 mmHg 80%
    03:00 +20°C° 0.1 mm 6 mps 749 mmHg 81%
    04:00 +20°C° 0.1 mm 6 mps 749 mmHg 81%
    05:00 +21°C° 0.4 mm 7 mps 749 mmHg 79%
    06:00 +21°C° 0.4 mm 7 mps 749 mmHg 77%
    07:00 +21°C° 0.4 mm 7 mps 749 mmHg 76%
    08:00 +21°C° 0.7 mm 7 mps 749 mmHg 74%
    09:00 +22°C° 0.7 mm 7 mps 749 mmHg 73%
    10:00 +22°C° 0.7 mm 7 mps 750 mmHg 72%
    11:00 +23°C° 0.5 mm 7 mps 750 mmHg 70%
    12:00 +23°C° 0.5 mm 7 mps 750 mmHg 68%
    13:00 +24°C° 0.5 mm 7 mps 750 mmHg 67%
    14:00 +24°C° 0.3 mm 7 mps 750 mmHg 66%
    15:00 +24°C° 0.3 mm 7 mps 750 mmHg 65%
    16:00 +24°C° 0.3 mm 7 mps 750 mmHg 64%
    17:00 +24°C° 0 mm 7 mps 750 mmHg 63%
    18:00 +24°C° 0 mm 7 mps 750 mmHg 63%
    19:00 +23°C° 0 mm 7 mps 750 mmHg 63%
    20:00 +23°C° 0 mm 7 mps 751 mmHg 62%
    21:00 +23°C° 0 mm 7 mps 751 mmHg 61%
    22:00 +22°C° 0 mm 7 mps 751 mmHg 60%
    23:00 +22°C° 0.1 mm 7 mps 751 mmHg 58%

    Day after tomorrow, 23 July, Monday

    Time Temperature Precipitation Wind Pressure Humidity
    00:00 +21°C° 0.1 mm 7 mps 752 mmHg 57%
    01:00 +21°C° 0.1 mm 7 mps 752 mmHg 56%
    02:00 +20°C° 0 mm 8 mps 752 mmHg 57%
    03:00 +20°C° 0 mm 8 mps 752 mmHg 58%
    04:00 +18°C° 0 mm 8 mps 753 mmHg 58%
    05:00 +18°C° 0 mm 8 mps 753 mmHg 59%
    06:00 +18°C° 0 mm 8 mps 753 mmHg 59%
    07:00 +18°C° 0 mm 8 mps 753 mmHg 59%
    08:00 +20°C° 0 mm 8 mps 754 mmHg 56%
    09:00 +21°C° 0 mm 8 mps 754 mmHg 53%
    10:00 +22°C° 0 mm 8 mps 754 mmHg 50%
    11:00 +23°C° 0 mm 8 mps 754 mmHg 47%
    12:00 +24°C° 0 mm 8 mps 754 mmHg 45%
    13:00 +26°C° 0 mm 8 mps 754 mmHg 42%
    14:00 +26°C° 0 mm 8 mps 754 mmHg 41%
    15:00 +26°C° 0 mm 7 mps 754 mmHg 41%
    16:00 +26°C° 0 mm 7 mps 754 mmHg 40%
    17:00 +26°C° 0 mm 6 mps 754 mmHg 41%
    18:00 +26°C° 0 mm 6 mps 755 mmHg 43%
    19:00 +25°C° 0 mm 5 mps 755 mmHg 44%
    20:00 +23°C° 0 mm 6 mps 755 mmHg 44%
    21:00 +23°C° 0 mm 6 mps 755 mmHg 43%
    22:00 +22°C° 0 mm 7 mps 755 mmHg 43%
    23:00 +22°C° 0 mm 7 mps 755 mmHg 43%

    24 July, Tuesday

    Time Temperature Precipitation Wind Pressure Humidity
    00:00 +21°C° 0 mm 7 mps 756 mmHg 43%
    01:00 +21°C° 0 mm 7 mps 756 mmHg 43%
    02:00 +21°C° 0 mm 7 mps 756 mmHg 43%
    03:00 +20°C° 0 mm 7 mps 756 mmHg 42%
    04:00 +20°C° 0 mm 7 mps 756 mmHg 42%
    05:00 +20°C° 0 mm 7 mps 756 mmHg 43%
    06:00 +20°C° 0 mm 7 mps 757 mmHg 44%
    07:00 +20°C° 0 mm 7 mps 757 mmHg 46%
    08:00 +21°C° 0 mm 7 mps 757 mmHg 43%
    09:00 +23°C° 0 mm 7 mps 757 mmHg 41%
    10:00 +24°C° 0 mm 7 mps 757 mmHg 39%
    11:00 +27°C° 0 mm 7 mps 757 mmHg 35%
    12:00 +28°C° 0 mm 7 mps 757 mmHg 32%
    13:00 +29°C° 0 mm 7 mps 757 mmHg 29%
    14:00 +30°C° 0 mm 7 mps 757 mmHg 29%
    15:00 +30°C° 0 mm 7 mps 757 mmHg 29%
    16:00 +30°C° 0 mm 6 mps 757 mmHg 29%
    17:00 +29°C° 0 mm 6 mps 757 mmHg 33%
    18:00 +28°C° 0 mm 5 mps 757 mmHg 36%
    19:00 +27°C° 0 mm 4 mps 757 mmHg 40%
    20:00 +26°C° 0 mm 5 mps 757 mmHg 43%
    21:00 +25°C° 0 mm 5 mps 757 mmHg 46%
    22:00 +23°C° 0 mm 6 mps 757 mmHg 49%
    23:00 +22°C° 0 mm 6 mps 757 mmHg 50%

    25 July, Wednesday

    Time Temperature Precipitation Wind Pressure Humidity
    00:00 +22°C° 0 mm 6 mps 757 mmHg 51%
    01:00 +21°C° 0 mm 6 mps 757 mmHg 53%
    02:00 +21°C° 0 mm 6 mps 757 mmHg 54%
    03:00 +21°C° 0 mm 6 mps 757 mmHg 55%
    04:00 +21°C° 0 mm 6 mps 758 mmHg 57%
    05:00 +21°C° 0 mm 6 mps 758 mmHg 57%
    06:00 +22°C° 0 mm 6 mps 758 mmHg 57%
    07:00 +22°C° 0 mm 5 mps 758 mmHg 58%
    08:00 +25°C° 0 mm 5 mps 759 mmHg 54%
    09:00 +27°C° 0 mm 6 mps 759 mmHg 50%
    10:00 +28°C° 0 mm 6 mps 759 mmHg 46%
    11:00 +29°C° 0 mm 5 mps 759 mmHg 43%
    12:00 +30°C° 0 mm 5 mps 759 mmHg 40%
    13:00 +32°C° 0 mm 5 mps 759 mmHg 37%
    14:00 +32°C° 0 mm 4 mps 759 mmHg 36%
    15:00 +32°C° 0 mm 4 mps 758 mmHg 36%
    16:00 +31°C° 0 mm 3 mps 758 mmHg 35%
    17:00 +30°C° 0 mm 3 mps 758 mmHg 39%
    18:00 +29°C° 0 mm 3 mps 758 mmHg 42%
    19:00 +28°C° 0 mm 3 mps 758 mmHg 46%
    20:00 +28°C° 0 mm 4 mps 759 mmHg 47%
    21:00 +27°C° 0 mm 4 mps 759 mmHg 48%
    22:00 +26°C° 0 mm 5 mps 759 mmHg 49%
    23:00 +26°C° 0 mm 5 mps 759 mmHg 51%

    26 July, Thursday

    Time Temperature Precipitation Wind Pressure Humidity
    00:00 +25°C° 0 mm 4 mps 759 mmHg 52%
    01:00 +23°C° 0 mm 4 mps 759 mmHg 53%
    02:00 +23°C° 0 mm 4 mps 759 mmHg 55%
    03:00 +22°C° 0 mm 4 mps 759 mmHg 57%
    04:00 +22°C° 0 mm 4 mps 759 mmHg 59%
    05:00 +22°C° 0 mm 4 mps 760 mmHg 59%
    06:00 +22°C° 0 mm 4 mps 760 mmHg 59%
    07:00 +23°C° 0 mm 5 mps 760 mmHg 58%
    08:00 +26°C° 0 mm 5 mps 760 mmHg 53%
    09:00 +28°C° 0 mm 5 mps 760 mmHg 47%
    10:00 +29°C° 0 mm 5 mps 760 mmHg 42%
    11:00 +30°C° 0 mm 5 mps 760 mmHg 39%
    12:00 +32°C° 0 mm 5 mps 760 mmHg 36%
    13:00 +33°C° 0 mm 4 mps 759 mmHg 33%
    14:00 +33°C° 0 mm 5 mps 759 mmHg 34%
    15:00 +33°C° 0 mm 5 mps 759 mmHg 35%
    16:00 +33°C° 0 mm 5 mps 759 mmHg 36%
    17:00 +32°C° 0 mm 4 mps 759 mmHg 40%
    18:00 +30°C° 0 mm 4 mps 759 mmHg 43%
    19:00 +29°C° 0 mm 3 mps 759 mmHg 47%
    20:00 +28°C° 0 mm 4 mps 759 mmHg 51%
    21:00 +26°C° 0 mm 4 mps 759 mmHg 54%
    22:00 +25°C° 0 mm 4 mps 759 mmHg 58%
    23:00 +23°C° 0 mm 4 mps 759 mmHg 59%
    Show more